ARG1648 SABE-SANT

Flight info

Callsign ARG1648
Flight time N/A
Altitude 34000
Route ATOVO UW5 IMBOL
Aircraft E190/M-SDE2E3FGHIRWXY/LB1D1

Departure

Time N/A
Airport Aeroparque Jorge Newbery (SABE)

Arrival

Time 2026-05-04 21:12
Airport Teniente Benjamín Matienzo International Airport (SANT)
Time Latitude Longitude Altitude Speed Heading
2026-05-04 19:42 -33.55217 -58.58063 33909 ft 425 kts 290°
2026-05-04 19:43 -33.53887 -58.61256 33909 ft 424 kts 290°
2026-05-04 19:43 -33.51344 -58.67625 33909 ft 423 kts 289°
2026-05-04 19:44 -33.48908 -58.73998 33906 ft 423 kts 288°
2026-05-04 19:44 -33.46524 -58.80435 33909 ft 422 kts 288°
2026-05-04 19:45 -33.44189 -58.86878 33905 ft 422 kts 287°
2026-05-04 19:45 -33.41880 -58.93343 33900 ft 422 kts 287°
2026-05-04 19:46 -33.39607 -58.99771 33904 ft 422 kts 287°
2026-05-04 19:46 -33.37333 -59.06236 33902 ft 422 kts 287°
2026-05-04 19:47 -33.35061 -59.12717 33899 ft 422 kts 287°
2026-05-04 19:47 -33.32792 -59.19201 33892 ft 422 kts 287°
2026-05-04 19:48 -33.30529 -59.25676 33892 ft 422 kts 287°
2026-05-04 19:48 -33.28275 -59.32121 33898 ft 423 kts 287°
2026-05-04 19:49 -33.26001 -59.38614 33898 ft 423 kts 287°
2026-05-04 19:49 -33.23723 -59.45107 33892 ft 423 kts 288°
2026-05-04 19:50 -33.21446 -59.51588 33892 ft 423 kts 288°
2026-05-04 19:50 -33.19160 -59.58083 33900 ft 424 kts 288°
2026-05-04 19:51 -33.16873 -59.64569 33897 ft 424 kts 288°
2026-05-04 19:51 -33.14592 -59.71027 33894 ft 425 kts 288°
2026-05-04 19:52 -33.12290 -59.77528 33890 ft 425 kts 288°
2026-05-04 19:52 -33.09984 -59.84029 33892 ft 425 kts 288°
2026-05-04 19:53 -33.07677 -59.90517 33885 ft 425 kts 288°
2026-05-04 19:53 -33.05378 -59.96972 33886 ft 425 kts 288°
2026-05-04 19:54 -33.03054 -60.03482 33884 ft 426 kts 288°
2026-05-04 19:54 -33.00729 -60.09981 33883 ft 426 kts 288°
2026-05-04 19:55 -32.98403 -60.16470 33883 ft 426 kts 289°
2026-05-04 19:55 -32.96085 -60.22924 33884 ft 426 kts 289°
2026-05-04 19:56 -32.93745 -60.29423 33882 ft 427 kts 289°
2026-05-04 19:56 -32.91405 -60.35909 33882 ft 427 kts 289°
2026-05-04 19:57 -32.89057 -60.42403 33881 ft 427 kts 289°
2026-05-04 19:57 -32.86707 -60.48894 33880 ft 427 kts 289°
2026-05-04 19:58 -32.84367 -60.55340 33882 ft 427 kts 289°
2026-05-04 19:58 -32.82008 -60.61826 33879 ft 427 kts 289°
2026-05-04 19:59 -32.79645 -60.68309 33881 ft 427 kts 289°
2026-05-04 19:59 -32.77280 -60.74788 33877 ft 426 kts 289°
2026-05-04 20:00 -32.74917 -60.81247 33878 ft 426 kts 289°
2026-05-04 20:00 -32.72551 -60.87704 33878 ft 426 kts 289°
2026-05-04 20:01 -32.70194 -60.94123 33876 ft 426 kts 289°
2026-05-04 20:01 -32.67807 -61.00609 33875 ft 426 kts 289°
2026-05-04 20:02 -32.65435 -61.07044 33870 ft 426 kts 289°
2026-05-04 20:02 -32.63072 -61.13440 33869 ft 426 kts 289°
2026-05-04 20:03 -32.60694 -61.19865 33869 ft 425 kts 289°
2026-05-04 20:03 -32.58315 -61.26280 33867 ft 425 kts 289°
2026-05-04 20:04 -32.55931 -61.32698 33868 ft 425 kts 289°
2026-05-04 20:04 -32.53544 -61.39111 33871 ft 425 kts 289°
2026-05-04 20:05 -32.51164 -61.45488 33864 ft 424 kts 289°
2026-05-04 20:05 -32.48774 -61.51880 33870 ft 424 kts 289°
2026-05-04 20:06 -32.46373 -61.58260 33868 ft 425 kts 291°
2026-05-04 20:06 -32.44604 -61.61120 33876 ft 440 kts 311°
2026-05-04 20:06 -32.42052 -61.63227 33861 ft 452 kts 322°
2026-05-04 20:07 -32.36541 -61.66853 33860 ft 453 kts 324°
2026-05-04 20:07 -32.31030 -61.70404 33859 ft 453 kts 324°
2026-05-04 20:08 -32.25543 -61.74052 33862 ft 452 kts 323°
2026-05-04 20:08 -32.20121 -61.77771 33862 ft 451 kts 322°
2026-05-04 20:09 -32.14808 -61.81503 33861 ft 450 kts 322°
2026-05-04 20:09 -32.09480 -61.85311 33872 ft 450 kts 321°
2026-05-04 20:10 -32.04213 -61.89122 33861 ft 449 kts 321°
2026-05-04 20:10 -31.99084 -61.92863 33856 ft 449 kts 321°
2026-05-04 20:11 -31.93903 -61.96662 33855 ft 449 kts 321°
2026-05-04 20:11 -31.88608 -62.00559 33859 ft 449 kts 321°
2026-05-04 20:12 -31.84200 -62.03812 33865 ft 449 kts 321°
2026-05-04 20:12 -31.78018 -62.08378 33863 ft 449 kts 321°
2026-05-04 20:13 -31.72765 -62.12262 33858 ft 448 kts 321°
2026-05-04 20:13 -31.68338 -62.15534 33860 ft 448 kts 321°
2026-05-04 20:14 -31.63053 -62.19436 33863 ft 448 kts 321°
2026-05-04 20:14 -31.57805 -62.23311 33863 ft 448 kts 321°
2026-05-04 20:15 -31.52514 -62.27212 33859 ft 448 kts 321°
2026-05-04 20:15 -31.47235 -62.31102 33858 ft 448 kts 321°
2026-05-04 20:16 -31.41967 -62.34978 33862 ft 447 kts 321°
2026-05-04 20:16 -31.36700 -62.38849 33858 ft 447 kts 321°
2026-05-04 20:17 -31.31458 -62.42697 33861 ft 447 kts 321°
2026-05-04 20:17 -31.26184 -62.46563 33862 ft 447 kts 321°
2026-05-04 20:18 -31.20920 -62.50416 33861 ft 447 kts 321°
2026-05-04 20:18 -31.15629 -62.54284 33864 ft 447 kts 321°
2026-05-04 20:19 -31.10389 -62.58111 33861 ft 447 kts 321°
2026-05-04 20:19 -31.05113 -62.61958 33860 ft 447 kts 321°
2026-05-04 20:20 -30.99838 -62.65798 33859 ft 446 kts 321°
2026-05-04 20:20 -30.94573 -62.69625 33862 ft 446 kts 321°
2026-05-04 20:21 -30.89331 -62.73429 33860 ft 446 kts 321°
2026-05-04 20:21 -30.81420 -62.79163 33861 ft 446 kts 321°
2026-05-04 20:22 -30.76145 -62.82981 33861 ft 446 kts 321°
2026-05-04 20:22 -30.70907 -62.86768 33857 ft 446 kts 321°
2026-05-04 20:23 -30.65632 -62.90575 33856 ft 446 kts 321°
2026-05-04 20:23 -30.60357 -62.94377 33850 ft 446 kts 321°
2026-05-04 20:24 -30.55083 -62.98173 33849 ft 445 kts 321°
2026-05-04 20:24 -30.49848 -63.01936 33847 ft 445 kts 321°
2026-05-04 20:25 -30.44578 -63.05720 33847 ft 445 kts 321°
2026-05-04 20:25 -30.39314 -63.09495 33851 ft 445 kts 321°
2026-05-04 20:26 -30.34044 -63.13269 33847 ft 445 kts 321°
2026-05-04 20:26 -30.28771 -63.17040 33843 ft 445 kts 321°
2026-05-04 20:27 -30.23533 -63.20780 33847 ft 445 kts 321°
2026-05-04 20:27 -30.18255 -63.24544 33834 ft 445 kts 321°
2026-05-04 20:28 -30.12976 -63.28306 33840 ft 445 kts 321°
2026-05-04 20:28 -30.07732 -63.32038 33834 ft 445 kts 321°
2026-05-04 20:29 -30.02462 -63.35783 33838 ft 445 kts 321°
2026-05-04 20:29 -29.97179 -63.39533 33839 ft 445 kts 321°
2026-05-04 20:30 -29.91900 -63.43275 33841 ft 446 kts 322°
2026-05-04 20:30 -29.86610 -63.47020 33840 ft 446 kts 322°
2026-05-04 20:31 -29.81325 -63.50756 33839 ft 446 kts 322°
2026-05-04 20:31 -29.76015 -63.54506 33842 ft 447 kts 322°
2026-05-04 20:32 -29.70751 -63.58218 33842 ft 447 kts 322°
2026-05-04 20:32 -29.65435 -63.61961 33843 ft 448 kts 322°
2026-05-04 20:33 -29.60121 -63.65700 33843 ft 448 kts 322°
2026-05-04 20:33 -29.54794 -63.69440 33843 ft 448 kts 322°
2026-05-04 20:34 -29.49459 -63.73183 33844 ft 449 kts 322°
2026-05-04 20:34 -29.44156 -63.76898 33844 ft 449 kts 322°
2026-05-04 20:35 -29.38811 -63.80639 33843 ft 450 kts 322°
2026-05-04 20:35 -29.33469 -63.84374 33840 ft 450 kts 322°
2026-05-04 20:36 -29.28107 -63.88116 33837 ft 450 kts 322°
2026-05-04 20:36 -29.22791 -63.91822 33815 ft 451 kts 322°
2026-05-04 20:37 -29.17421 -63.95561 33822 ft 451 kts 322°
2026-05-04 20:37 -29.12047 -63.99297 33819 ft 451 kts 322°
2026-05-04 20:38 -29.06673 -64.03029 33815 ft 451 kts 322°
2026-05-04 20:38 -29.01293 -64.06760 33813 ft 452 kts 322°
2026-05-04 20:39 -28.95921 -64.10482 33810 ft 452 kts 322°
2026-05-04 20:39 -28.90561 -64.14190 33808 ft 452 kts 322°
2026-05-04 20:40 -28.85180 -64.17908 33811 ft 452 kts 322°
2026-05-04 20:40 -28.79790 -64.21627 33811 ft 452 kts 322°
2026-05-04 20:41 -28.74388 -64.25351 33805 ft 452 kts 322°
2026-05-04 20:41 -28.69038 -64.29034 33804 ft 453 kts 322°
2026-05-04 20:42 -28.63641 -64.32746 33804 ft 453 kts 322°
2026-05-04 20:42 -28.58243 -64.36455 33809 ft 452 kts 322°
2026-05-04 20:43 -28.55612 -64.38250 33804 ft 425 kts 322°
2026-05-04 20:43 -28.53153 -64.39910 33808 ft 397 kts 322°
2026-05-04 20:43 -28.50838 -64.41470 33813 ft 383 kts 322°
2026-05-04 20:43 -28.48573 -64.43011 33807 ft 383 kts 321°
2026-05-04 20:44 -28.44011 -64.46144 33808 ft 384 kts 321°
2026-05-04 20:44 -28.39432 -64.49292 33810 ft 384 kts 321°
2026-05-04 20:45 -28.34860 -64.52430 33812 ft 383 kts 321°
2026-05-04 20:45 -28.30313 -64.55544 33809 ft 384 kts 321°
2026-05-04 20:46 -28.25728 -64.58676 33812 ft 384 kts 321°
2026-05-04 20:46 -28.21150 -64.61800 33815 ft 384 kts 321°
2026-05-04 20:47 -28.16558 -64.64928 33820 ft 385 kts 321°
2026-05-04 20:47 -28.11962 -64.68057 33820 ft 385 kts 321°
2026-05-04 20:48 -28.07374 -64.71175 33819 ft 385 kts 321°
2026-05-04 20:48 -28.03021 -64.74129 33821 ft 384 kts 321°
2026-05-04 20:49 -27.98439 -64.77238 33823 ft 384 kts 321°
2026-05-04 20:49 -27.93840 -64.80355 33823 ft 384 kts 321°
2026-05-04 20:50 -27.89280 -64.83440 33824 ft 385 kts 321°
2026-05-04 20:50 -27.86971 -64.85008 33388 ft 388 kts 322°
2026-05-04 20:50 -27.84665 -64.86568 32916 ft 384 kts 322°
2026-05-04 20:51 -27.82388 -64.88105 32455 ft 379 kts 322°
2026-05-04 20:51 -27.80137 -64.89621 32008 ft 375 kts 322°
2026-05-04 20:51 -27.77906 -64.91126 31555 ft 372 kts 322°
2026-05-04 20:51 -27.75628 -64.92501 31120 ft 378 kts 334°
2026-05-04 20:52 -27.72967 -64.92893 30704 ft 397 kts 359°
2026-05-04 20:52 -27.70229 -64.92237 30265 ft 405 kts
2026-05-04 20:52 -27.67537 -64.91302 29827 ft 403 kts 11°
2026-05-04 20:52 -27.64889 -64.90310 29335 ft 399 kts 12°
2026-05-04 20:53 -27.62294 -64.89320 28858 ft 396 kts 12°
2026-05-04 20:53 -27.59689 -64.88332 28386 ft 394 kts 12°
2026-05-04 20:53 -27.57095 -64.87362 27917 ft 391 kts 12°
2026-05-04 20:53 -27.54522 -64.86416 27462 ft 387 kts 12°
2026-05-04 20:54 -27.51967 -64.85494 27009 ft 384 kts 11°
2026-05-04 20:54 -27.49424 -64.84590 26553 ft 382 kts 11°
2026-05-04 20:54 -27.46890 -64.83703 26126 ft 379 kts 11°
2026-05-04 20:54 -27.44377 -64.82832 25697 ft 377 kts 11°
2026-05-04 20:55 -27.41875 -64.81972 25271 ft 375 kts 11°
2026-05-04 20:55 -27.39418 -64.81135 24860 ft 373 kts 11°
2026-05-04 20:55 -27.36935 -64.80294 24450 ft 371 kts 12°
2026-05-04 20:55 -27.34470 -64.79460 24043 ft 369 kts 12°
2026-05-04 20:56 -27.32004 -64.78628 23643 ft 368 kts 12°
2026-05-04 20:56 -27.29556 -64.77805 23216 ft 366 kts 12°
2026-05-04 20:56 -27.27126 -64.76988 22743 ft 363 kts 12°
2026-05-04 20:56 -27.24709 -64.76176 22281 ft 359 kts 12°
2026-05-04 20:57 -27.22326 -64.75377 21824 ft 356 kts 11°
2026-05-04 20:57 -27.19926 -64.75073 21389 ft 342 kts 347°
2026-05-04 20:57 -27.17749 -64.75871 20952 ft 331 kts 329°
2026-05-04 20:57 -27.15710 -64.77062 20505 ft 328 kts 327°
2026-05-04 20:58 -27.13724 -64.78310 20075 ft 325 kts 326°
2026-05-04 20:58 -27.11772 -64.79570 19651 ft 323 kts 326°
2026-05-04 20:58 -27.10516 -64.80387 19382 ft 322 kts 326°
2026-05-04 20:58 -27.07928 -64.82082 18832 ft 320 kts 326°
2026-05-04 20:59 -27.06028 -64.83327 18434 ft 317 kts 326°
2026-05-04 20:59 -27.04151 -64.84555 18018 ft 308 kts 326°
2026-05-04 20:59 -27.02912 -64.85364 17710 ft 302 kts 326°
2026-05-04 20:59 -27.01118 -64.86506 17475 ft 289 kts 332°
2026-05-04 21:00 -26.99202 -64.86930 17406 ft 277 kts 356°
2026-05-04 21:00 -26.96725 -64.86790 17185 ft 261 kts
2026-05-04 21:00 -26.94940 -64.86634 16876 ft 256 kts
2026-05-04 21:00 -26.93747 -64.86538 16611 ft 254 kts 360°
2026-05-04 21:01 -26.92010 -64.86429 16221 ft 252 kts 359°
2026-05-04 21:01 -26.90267 -64.86360 15834 ft 250 kts 358°
2026-05-04 21:01 -26.88534 -64.86328 15452 ft 248 kts 357°
2026-05-04 21:01 -26.86811 -64.86322 15075 ft 247 kts 356°
2026-05-04 21:02 -26.85097 -64.86338 14715 ft 245 kts 356°
2026-05-04 21:02 -26.83400 -64.86369 14340 ft 243 kts 356°
2026-05-04 21:02 -26.81705 -64.86407 13979 ft 242 kts 356°
2026-05-04 21:02 -26.80023 -64.86450 13620 ft 241 kts 356°
2026-05-04 21:03 -26.78383 -64.86495 13237 ft 239 kts 356°
2026-05-04 21:03 -26.76714 -64.86543 12846 ft 237 kts 356°
2026-05-04 21:03 -26.75061 -64.86590 12462 ft 236 kts 356°
2026-05-04 21:03 -26.73422 -64.86635 12086 ft 235 kts 356°
2026-05-04 21:04 -26.71795 -64.86678 11720 ft 233 kts 357°
2026-05-04 21:04 -26.70175 -64.86729 11358 ft 231 kts 357°
2026-05-04 21:04 -26.68571 -64.86782 11008 ft 230 kts 358°
2026-05-04 21:04 -26.66997 -64.86831 10667 ft 228 kts 358°
2026-05-04 21:05 -26.65412 -64.86876 10309 ft 227 kts 359°
2026-05-04 21:05 -26.63846 -64.87005 9960 ft 226 kts 342°
2026-05-04 21:05 -26.62581 -64.87995 9565 ft 227 kts 301°
2026-05-04 21:05 -26.62161 -64.89673 9164 ft 227 kts 272°
2026-05-04 21:06 -26.62162 -64.91432 8820 ft 225 kts 268°
2026-05-04 21:06 -26.62243 -64.93160 8445 ft 217 kts 266°
2026-05-04 21:06 -26.62385 -64.94855 8049 ft 219 kts 264°
2026-05-04 21:06 -26.62589 -64.96541 7716 ft 217 kts 262°
2026-05-04 21:07 -26.62778 -64.98208 7400 ft 215 kts 266°
2026-05-04 21:07 -26.62881 -64.99849 7090 ft 213 kts 268°
2026-05-04 21:07 -26.63028 -65.01488 6774 ft 212 kts 251°
2026-05-04 21:07 -26.63614 -65.02995 6471 ft 211 kts 244°
2026-05-04 21:08 -26.64386 -65.04382 6156 ft 211 kts 233°
2026-05-04 21:08 -26.65420 -65.05555 5785 ft 213 kts 220°
2026-05-04 21:08 -26.66640 -65.06503 5412 ft 216 kts 211°
2026-05-04 21:08 -26.68029 -65.07193 4953 ft 222 kts 199°
2026-05-04 21:09 -26.69468 -65.07667 4092 ft 210 kts 194°
2026-05-04 21:09 -26.70883 -65.08100 2911 ft 213 kts 194°
2026-05-04 21:09 -26.72226 -65.08514 2409 ft 180 kts 194°
2026-05-04 21:09 -26.73286 -65.08789 2237 ft 133 kts 191°
2026-05-04 21:10 -26.74158 -65.08920 2769 ft 117 kts 182°
2026-05-04 21:10 -26.75024 -65.08973 3017 ft 153 kts 178°
2026-05-04 21:10 -26.76248 -65.08945 2753 ft 167 kts 176°
2026-05-04 21:10 -26.77366 -65.09016 2604 ft 155 kts 186°
2026-05-04 21:11 -26.78385 -65.09264 2271 ft 146 kts 193°
2026-05-04 21:11 -26.79365 -65.09519 1945 ft 143 kts 193°
2026-05-04 21:11 -26.80364 -65.09695 1867 ft 146 kts 191°
2026-05-04 21:11 -26.81355 -65.09930 1721 ft 147 kts 193°
2026-05-04 21:12 -26.82338 -65.10134 1535 ft 142 kts 191°
2026-05-04 21:12 -26.83257 -65.10318 1486 ft 121 kts 192°
2026-05-04 21:12 -26.83723 -65.10413 1496 ft 20 kts 190°
2026-05-04 21:12 -26.83830 -65.10462 1489 ft 14 kts 207°
2026-05-04 21:13 -26.83854 -65.10474 1495 ft 1 kts 212°
2026-05-04 21:13 -26.83855 -65.10475 1495 ft 0 kts 215°
2026-05-04 21:13 -26.83856 -65.10477 1495 ft 0 kts 219°
2026-05-04 21:13 -26.83857 -65.10477 1495 ft 1 kts 219°
2026-05-04 21:14 -26.83888 -65.10505 1490 ft 14 kts 218°
2026-05-04 21:14 -26.83951 -65.10596 1491 ft 16 kts 273°
2026-05-04 21:14 -26.83868 -65.10677 1491 ft 22 kts 338°
2026-05-04 21:14 -26.83731 -65.10727 1486 ft 14 kts 346°
2026-05-04 21:15 -26.83666 -65.10727 1490 ft 5 kts
2026-05-04 21:15 -26.83618 -65.10730 1486 ft 5 kts 341°
2026-05-04 21:15 -26.83610 -65.10742 1488 ft 0 kts 298°
2026-05-04 21:15 -26.83606 -65.10768 1489 ft 6 kts 281°
2026-05-04 21:16 -26.83606 -65.10770 1490 ft 0 kts 282°